GW5272 Weather Reports


Display with metric or nautical units.
time (UTC)temp
F
wind
direction
speed
MPH
gust
MPH
rain 1hr
in
rain 24hr
in
rain mn
in
humidity
%
barometer
mb
20260503204338 55 275 2.0 7.0 0.00 0.00 0.00 35 1017.6
20260503203835 56 280 4.0 6.0 0.00 0.00 0.00 33 1017.7
20260503203332 56 340 6.0 7.0 0.00 0.00 0.00 35 1017.8
20260503202829 56 259 4.0 8.0 0.00 0.00 0.00 34 1017.9
20260503202327 56 92 2.0 4.0 0.00 0.00 0.00 33 1017.9
20260503201825 55 266 2.0 10.0 0.00 0.00 0.00 34 1017.7
20260503201321 55 271 2.0 4.0 0.00 0.00 0.00 35 1018.0
20260503200819 56 344 2.0 7.0 0.00 0.00 0.00 32 1018.2
20260503200315 56 164 2.0 4.0 0.00 0.00 0.00 38 1018.3
20260503195813 56 191 5.0 8.0 0.00 0.00 0.00 35 1018.2
20260503195309 55 163 3.0 8.0 0.00 0.00 0.00 36 1018.3
20260503194806 55 5 3.0 6.0 0.00 0.00 0.00 34 1018.5
20260503194302 55 263 9.0 15.0 0.00 0.00 0.00 35 1018.7
20260503193758 54 19 4.0 9.0 0.00 0.00 0.00 34 1018.6
20260503193254 56 219 1.0 7.0 0.00 0.00 0.00 33 1018.5
20260503192750 55 220 4.0 4.0 0.00 0.00 0.00 37 1018.8
20260503192245 55 292 5.0 6.0 0.00 0.00 0.00 35 1018.6
20260503191743 54 30 6.0 10.0 0.00 0.00 0.00 35 1018.7
20260503191240 55 203 5.0 6.0 0.00 0.00 0.00 38 1018.7
20260503190736 55 267 5.0 8.0 0.00 0.00 0.00 37 1018.9
20260503190233 53 215 5.0 6.0 0.00 0.00 0.00 45 1018.9
20260503185731 55 225 5.0 10.0 0.00 0.00 0.00 35 1019.1
20260503185226 54 315 2.0 7.0 0.00 0.00 0.00 36 1019.1
20260503184721 54 350 2.0 7.0 0.00 0.00 0.00 38 1019.2
20260503184217 54 291 2.0 3.0 0.00 0.00 0.00 39 1019.3
20260503183714 53 115 2.0 6.0 0.00 0.00 0.00 42 1019.2
20260503183211 54 335 2.0 3.0 0.00 0.00 0.00 37 1019.1
20260503182709 54 202 5.0 8.0 0.00 0.00 0.00 40 1019.5
20260503182208 52 218 3.0 4.0 0.00 0.00 0.00 39 1019.2
20260503181703 52 267 3.0 4.0 0.00 0.00 0.00 36 1019.5
20260503181200 51 263 3.0 14.0 0.00 0.00 0.00 38 1019.6
20260503180657 53 270 8.0 21.0 0.00 0.00 0.00 39 1019.7
20260503180156 53 250 5.0 9.0 0.00 0.00 0.00 39 1019.6
20260503175652 52 39 2.0 9.0 0.00 0.00 0.00 36 1019.6
20260503175150 52 122 3.0 4.0 0.00 0.00 0.00 37 1019.6
20260503174646 53 263 2.0 9.0 0.00 0.00 0.00 44 1019.8
20260503174143 51 148 3.0 3.0 0.00 0.00 0.00 41 1019.7
20260503173638 51 292 4.0 6.0 0.00 0.00 0.00 40 1019.9
20260503173135 51 272 3.0 3.0 0.00 0.00 0.00 40 1019.8
20260503172632 51 156 2.0 11.0 0.00 0.00 0.00 41 1019.8
20260503172129 51 281 4.0 7.0 0.00 0.00 0.00 40 1019.9
20260503171625 51 81 1.0 4.0 0.00 0.00 0.00 38 1019.8
20260503171123 49 338 1.0 10.0 0.00 0.00 0.00 39 1020.0
20260503170620 50 141 1.0 3.0 0.00 0.00 0.00 39 1020.0
20260503170116 51 33 2.0 4.0 0.00 0.00 0.00 43 1020.0
20260503151012 45 280 6.0 9.0 0.00 0.00 0.00 47 1021.1
20260503150508 45 261 4.0 6.0 0.00 0.00 0.00 46 1021.2
20260503131401 41 197 2.0 7.0 0.00 0.00 0.00 62 1020.8
20260503130858 41 278 2.0 6.0 0.00 0.00 0.00 62 1020.8
20260503130356 41 77 3.0 6.0 0.00 0.00 0.00 61 1020.9
20260503110755 31 206 0.0 0.0 0.00 0.00 0.00 92 1019.9
20260503110252 31 206 0.0 0.0 0.00 0.00 0.00 92 1019.9
20260503100218 32 264 0.0 0.0 0.00 0.00 0.00 90 1019.1
20260503090143 35 172 0.0 0.0 0.00 0.00 0.00 83 1018.5
20260503081618 37 166 2.0 2.0 0.00 0.00 0.00 80 1018.6
20260503081115 37 115 0.0 0.0 0.00 0.00 0.00 81 1018.6
20260503080611 37 57 0.0 0.0 0.00 0.00 0.00 81 1018.4
20260503080108 37 330 2.0 4.0 0.00 0.00 0.00 79 1018.3
20260503072545 37 257 0.0 1.0 0.00 0.00 0.00 79 1018.2
20260503072042 37 76 0.0 1.0 0.00 0.00 0.00 79 1017.9
20260503071539 37 195 0.0 1.0 0.00 0.00 0.00 80 1018.0
20260503071036 36 95 1.0 2.0 0.00 0.00 0.00 79 1017.8
20260503070532 37 263 1.0 4.0 0.00 0.00 0.00 80 1017.7
20260503060145 38 238 0.0 0.0 0.00 0.00 0.00 79 1017.9
20260503054632 37 287 1.0 4.0 0.00 0.00 0.00 78 1017.6
20260503054129 37 287 1.0 4.0 0.00 0.00 0.00 78 1017.6
20260503053627 37 241 0.0 0.0 0.00 0.00 0.00 82 1017.7
20260503053126 37 317 0.0 0.0 0.00 0.00 0.00 81 1017.7
20260503052621 37 235 0.0 0.0 0.00 0.00 0.00 81 1017.7
20260503052118 37 235 0.0 0.0 0.00 0.00 0.00 81 1017.8
20260503051613 37 222 0.0 0.0 0.00 0.00 0.00 79 1017.7
20260503051111 37 254 0.0 0.0 0.00 0.00 0.00 79 1017.7
20260503050607 37 295 0.0 0.0 0.00 0.00 0.00 78 1017.6
20260503050105 37 306 2.0 2.0 0.00 0.00 0.00 78 1017.5
20260503045601 38 35 2.0 3.0 0.00 0.00 0.00 76 1017.8
20260503045059 38 35 2.0 3.0 0.00 0.00 0.00 76 1017.8
20260503044555 38 26 1.0 2.0 0.00 0.00 0.00 76 1017.7
20260503044053 39 36 3.0 7.0 0.00 0.00 0.00 75 1017.5
20260503043549 39 114 0.0 1.0 0.00 0.00 0.00 74 1017.8
20260503043046 39 199 0.0 0.0 0.00 0.00 0.00 76 1017.9
20260503042543 39 199 0.0 0.0 0.00 0.00 0.00 76 1017.9
20260503042038 39 46 0.0 0.0 0.00 0.00 0.00 73 1017.8
20260503041536 39 49 3.0 4.0 0.00 0.00 0.00 72 1017.7
20260503041033 39 308 2.0 6.0 0.00 0.00 0.00 72 1017.8
20260503040531 40 67 2.0 2.0 0.00 0.00 0.00 72 1017.8
20260503040028 40 269 1.0 6.0 0.00 0.00 0.00 71 1017.8
20260503035524 40 353 2.0 3.0 0.00 0.00 0.00 71 1017.8
20260503035022 40 46 0.0 2.0 0.00 0.00 0.00 72 1017.7
20260503034519 40 5 2.0 6.0 0.00 0.00 0.00 70 1017.5
20260503034016 40 44 2.0 7.0 0.00 0.00 0.00 70 1017.7
20260503033513 41 82 1.0 4.0 0.00 0.00 0.00 70 1017.6
20260503033011 41 80 5.0 7.0 0.00 0.00 0.00 69 1017.9
20260503032509 41 80 5.0 7.0 0.00 0.00 0.00 69 1017.9
20260503032008 41 43 9.0 10.0 0.00 0.00 0.00 68 1017.6
20260503031505 41 93 2.0 4.0 0.00 0.00 0.00 68 1017.6
20260503031001 41 58 6.0 8.0 0.00 0.00 0.00 68 1017.8
20260503030457 41 54 3.0 9.0 0.00 0.00 0.00 66 1017.7
20260503025954 42 22 4.0 7.0 0.00 0.00 0.00 66 1017.7
20260503025451 42 77 2.0 4.0 0.00 0.00 0.00 65 1017.7
20260503024949 42 41 5.0 9.0 0.00 0.00 0.00 65 1017.7
20260503024445 42 17 1.0 3.0 0.00 0.00 0.00 64 1017.6
20260503023943 42 63 4.0 8.0 0.00 0.00 0.00 63 1017.5
20260503023439 42 63 4.0 8.0 0.00 0.00 0.00 63 1017.5
20260503022936 42 42 0.0 3.0 0.00 0.00 0.00 64 1017.7
20260503022431 42 68 4.0 7.0 0.00 0.00 0.00 63 1017.7
20260503021927 42 87 1.0 3.0 0.00 0.00 0.00 63 1017.7
20260503021423 42 130 3.0 6.0 0.00 0.00 0.00 61 1017.7
20260503020921 43 80 4.0 6.0 0.00 0.00 0.00 61 1017.6
20260503020419 43 65 5.0 8.0 0.00 0.00 0.00 61 1017.4
20260503015915 43 64 4.0 13.0 0.00 0.00 0.00 60 1017.4
20260503015412 43 32 6.0 9.0 0.00 0.00 0.00 59 1017.3
20260503014908 43 71 7.0 10.0 0.00 0.00 0.00 59 1017.4
20260503014406 43 36 3.0 3.0 0.00 0.00 0.00 59 1017.4
20260503013903 42 90 4.0 7.0 0.00 0.00 0.00 60 1017.1
20260503013400 43 33 3.0 7.0 0.00 0.00 0.00 58 1017.3
20260503012857 43 42 3.0 6.0 0.00 0.00 0.00 57 1017.0
20260503012355 44 294 4.0 6.0 0.00 0.00 0.00 54 1017.3
20260503011851 44 266 0.0 1.0 0.00 0.00 0.00 54 1017.0
20260503011348 44 38 0.0 3.0 0.00 0.00 0.00 54 1017.0
20260503010845 44 268 0.0 2.0 0.00 0.00 0.00 55 1016.8
20260503010342 45 232 0.0 0.0 0.00 0.00 0.00 52 1016.7
20260503005838 45 31 1.0 1.0 0.00 0.00 0.00 53 1016.6
20260503005336 45 302 2.0 7.0 0.00 0.00 0.00 50 1016.4
20260503004832 45 284 2.0 3.0 0.00 0.00 0.00 50 1016.5
20260503004330 45 234 0.0 1.0 0.00 0.00 0.00 53 1016.5
20260503003827 45 137 0.0 0.0 0.00 0.00 0.00 51 1016.5
20260503003324 45 21 1.0 3.0 0.00 0.00 0.00 51 1016.4
20260503002821 45 277 1.0 4.0 0.00 0.00 0.00 48 1016.4
20260503002318 46 28 2.0 6.0 0.00 0.00 0.00 49 1016.4
20260503001814 46 333 2.0 2.0 0.00 0.00 0.00 51 1016.1
20260503001311 46 269 0.0 6.0 0.00 0.00 0.00 49 1016.2
20260503000808 46 252 0.0 2.0 0.00 0.00 0.00 48 1016.2
20260503000306 46 293 1.0 4.0 0.00 0.00 0.00 48 1016.0
20260502235802 46 293 1.0 4.0 0.00 0.00 0.00 48 1016.0
20260502235300 46 245 1.0 3.0 0.00 0.00 0.00 48 1016.1
20260502234756 46 239 0.0 0.0 0.00 0.00 0.00 49 1016.2
20260502234253 46 357 0.0 0.0 0.00 0.00 0.00 47 1016.0
20260502233749 46 277 3.0 4.0 0.00 0.00 0.00 47 1015.9
20260502233247 46 194 1.0 6.0 0.00 0.00 0.00 48 1016.0
20260502232742 46 214 0.0 0.0 0.00 0.00 0.00 50 1015.8
20260502232239 47 274 0.0 0.0 0.00 0.00 0.00 48 1015.9
20260502231736 46 236 0.0 0.0 0.00 0.00 0.00 47 1015.8
20260502231234 46 243 0.0 2.0 0.00 0.00 0.00 47 1015.8
20260502230732 46 279 1.0 4.0 0.00 0.00 0.00 47 1015.9
20260502230230 46 29 2.0 3.0 0.00 0.00 0.00 49 1016.0
20260502225726 47 34 4.0 9.0 0.00 0.00 0.00 46 1016.0
20260502225218 47 147 2.0 4.0 0.00 0.00 0.00 47 1015.7
20260502224714 47 37 4.0 6.0 0.00 0.00 0.00 46 1015.7
20260502224211 47 246 0.0 3.0 0.00 0.00 0.00 46 1015.7
20260502223709 47 270 5.0 10.0 0.00 0.00 0.00 46 1015.9
20260502223207 47 270 5.0 10.0 0.00 0.00 0.00 46 1015.9
20260502222704 47 199 0.0 2.0 0.00 0.00 0.00 49 1015.7
20260502222200 47 208 2.0 4.0 0.00 0.00 0.00 46 1015.9
20260502221656 47 73 0.0 1.0 0.00 0.00 0.00 48 1015.8
20260502221153 47 297 3.0 6.0 0.00 0.00 0.00 45 1015.4
20260502220649 47 297 3.0 6.0 0.00 0.00 0.00 45 1015.4
20260502220146 47 263 6.0 7.0 0.00 0.00 0.00 44 1015.7
20260502215643 48 193 4.0 9.0 0.00 0.00 0.00 45 1015.6
20260502215140 47 54 0.0 4.0 0.00 0.00 0.00 46 1015.6
20260502214637 47 238 4.0 9.0 0.00 0.00 0.00 46 1015.4
20260502214134 47 238 4.0 9.0 0.00 0.00 0.00 46 1015.4
20260502213631 47 234 2.0 3.0 0.00 0.00 0.00 48 1015.6
20260502213128 47 184 0.0 4.0 0.00 0.00 0.00 45 1015.4
20260502212627 47 194 0.0 6.0 0.00 0.00 0.00 43 1015.3
20260502212125 48 310 6.0 8.0 0.00 0.00 0.00 43 1015.2
20260502211620 49 278 2.0 2.0 0.00 0.00 0.00 43 1015.3
20260502211117 49 301 7.0 8.0 0.00 0.00 0.00 47 1015.2
20260502210615 48 95 2.0 4.0 0.00 0.00 0.00 45 1015.3
20260502210111 48 210 1.0 3.0 0.00 0.00 0.00 45 1015.1
20260502205608 48 272 6.0 8.0 0.00 0.00 0.00 43 1015.4
20260502205105 48 272 6.0 8.0 0.00 0.00 0.00 43 1015.4
20260502204601 48 230 0.0 6.0 0.00 0.00 0.00 46 1015.1